Regional Weather Roundup
Issued by NWS

Home | Current Version | Previous Version | Text Only | Print | Product List | Glossary On
Versions: 1 2 3 4 5 6 7 8 9 10 11 12 13 14 15 16 17 18 19 20 21 22 23 24 25 26 27 28 29 30 31 32 33 34 35 36 37 38 39 40 41 42 43 44 45 46 47 48 49 50
000
ASUS43 KLOT 141708
RWRIL

ILLINOIS REGIONAL WEATHER ROUNDUP
NATIONAL WEATHER SERVICE CHICAGO/ROMEOVILLE IL
1100 AM CST SUN FEB 14 2016

NOTE: "FAIR" INDICATES FEW OR NO CLOUDS BELOW 12,000 FEET WITH NO
SIGNIFICANT WEATHER AND/OR OBSTRUCTIONS TO VISIBILITY.

* THESE STATIONS ARE NOT UNDER NWS QUALITY CONTROL. THEY ALSO MAY NOT
  REPORT WEATHER SUCH AS PRECIPITATION OR FOG.

ILZ001-002-007-009-015-016-024-141800-
NORTHWEST ILLINOIS

CITY           SKY/WX    TMP DP  RH WIND       PRES   REMARKS
MOLINE         LGT SNOW  18  12  77 SE15      30.13S WCI   4
STERLING*      CLOUDY    16  10  79 E12       30.15F VSB 3/4 WCI   3
SAVANNA*       LGT SNOW  17  12  83 SE14      30.16F VSB 3/4 WCI   2
$$

ILZ003-004-008-010-011-017-018-141800-
NORTH CENTRAL ILLINOIS

CITY           SKY/WX    TMP DP  RH WIND       PRES   REMARKS
ROCKFORD       SNOW      15   9  76 SE17      30.22F VSB 1/2 WCI  -1
FREEPORT*      LGT SNOW  14  10  85 SE18      30.20F VSB 1   WCI  -3
ROCHELLE*      SNOW      15  11  86 SE16      30.21F VSB 1/2 WCI  -1
DE KALB*       SNOW      15  10  82 SE15G22   30.21F VSB 1/2 WCI   0
$$

ILZ005-006-012>014-019>023-141800-
NORTHEAST ILLINOIS

CITY           SKY/WX    TMP DP  RH WIND       PRES   REMARKS
CHICAGO-OHARE  CLOUDY    17   2  51 SE13      30.26F WCI   4
CHICAGO-MIDWAY CLOUDY    18   1  47 SE13G21   30.27F WCI   5
AURORA         LGT SNOW  17   9  70 SE17      30.23F VSB 3/4 WCI   1
LANSING*       CLOUDY    17   3  53 SE12G18   30.28F WCI   4
WAUKEGAN       CLOUDY    17   7  64 SE16G22   30.24F WCI   2
DUPAGE AIRPORT LGT SNOW  16   3  56 SE12      30.22F WCI   3
KANKAKEE*      LGT SNOW  18   9  70 E15G23    30.24F WCI   3
WHEELING       CLOUDY    17   5  59 SE17      30.28F WCI   1
MORRIS*        LGT SNOW  16  10  78 SE12      30.22S VSB 1   WCI   3
ROMEOVILLE*    LGT SNOW  17   6  64 SE17      30.24F WCI   1
NORTHERLY ISL    N/A     17   4  56 S14         N/A  WCI   3
$$

LMZ740>746-141800-
SOUTHERN LAKE MICHIGAN

STATION/POSITION SKY/WX   TEMP    WIND        PRES    VSBY  WAVE
                          AIR SEA DIR/SP/G                  HT/PER
                          (F)     (DEG/KT/KT) (MB)    (MI)  (FT/S)
HARRISON CRIB              16     140/ 19/ 24   N/A
BURNHAM HARBOR             18     120/ 14/ 18   N/A
CALUMET HARBOR             16     140/ 12/ 19 1025.2R
BURNS HARBOR               15     140/ 13/ 19 1026.4F
MICHIGAN CITY              13     100/ 11/ 14   N/A
$$

ILZ025>027-034>036-040-047-049-050-058-095>099-141800-
WEST-CENTRAL ILLINOIS

CITY           SKY/WX    TMP DP  RH WIND       PRES   REMARKS
QUINCY         CLOUDY    20  15  81 SE17      30.05F WCI   5
GALESBURG*     LGT SNOW  17  14  86 SE15G22   30.10F WCI   2
MACOMB*        LGT SNOW  18  16  90 SE18G24   30.13S WCI   3
JACKSONVILLE*  SNOW      22  19  87 SE10      30.13F VSB 1/2 WCI  11
PITTSFIELD*    LGT SNOW  21  18  90 SE10      30.10F WCI   9
$$

ILZ028>032-037-038-041>044-048-051>054-059>061-141800-
CENTRAL ILLINOIS

CITY           SKY/WX    TMP DP  RH WIND       PRES   REMARKS
PONTIAC        LGT SNOW  18  15  90 SE18      30.22F VSB 3/4 WCI   2
BLOOMINGTON    LGT SNOW  18  15  88 SE20G25   30.16F VSB 3/4 WCI   2
DECATUR        SNOW      19  14  81 SE16      30.17F VSB 1/2 WCI   4
PEORIA         SNOW      18  14  84 SE14      30.18F VSB 1/4 WCI   4
LACON*         SNOW      17  13  84 SE13      30.18F VSB 1/2 WCI   4
LINCOLN*       LGT SNOW  19  16  88 SE12      30.19F VSB 3/4 WCI   7
SPRINGFIELD    HVY SNOW  20  17  88 SE12      30.15F VSB 1/4 WCI   8
TAYLORVILLE    SNOW      19  18  93 SE10G23   30.16F VSB 1/2 WCI   8
$$

ILZ033-039-045-046-055>057-062-063-141800-
EAST-CENTRAL ILLINOIS

CITY           SKY/WX    TMP DP  RH WIND       PRES   REMARKS
CHAMPAIGN      SNOW      18  14  84 SE21G29   30.20F VSB 1/2 WCI   1
RANTOUL*       LGT SNOW  19  15  82 SE17      30.24F WCI   4
MATTOON        LGT SNOW  19  13  77 SE18      30.19F VSB 1   WCI   4
PARIS*         LGT SNOW  19  14  82 SE14G20   30.26F WCI   6
$$

ILZ079-100>102-141800-
SOUTHWEST ILLINOIS

CITY           SKY/WX    TMP DP  RH WIND       PRES   REMARKS
ALTON          SNOW      21  19  93 SE14G22     N/A  VSB 1/2 WCI   8
BELLEVILLE     LGT SNOW  22  21  96 E12       30.16S VSB 3/4 WCI  10
CAHOKIA*       LGT SNOW  23  18  81 SE10      30.14F VSB 3/4 WCI  12
SPARTA*        LGT SNOW  21  19  89 SE9G18    30.16F WCI  11
$$

ILZ064>066-069>071-074>076-080>082-084>086-088>090-092>094-141800-
SOUTH-CENTRAL ILLINOIS

CITY           SKY/WX    TMP DP  RH WIND       PRES   REMARKS
CARBONDALE     LGT SNOW  22  18  85 SE12      30.17F VSB 1   WCI  10
CAIRO*         LGT SNOW  26  24  92 E14       30.18F WCI  15
EFFINGHAM*     LGT SNOW  22  18  87 E12       30.23S WCI  10
MARION         LGT SNOW  25  21  86 SE12      30.19F WCI  14
MT. VERNON     CLOUDY    23  16  74 SE10G17   30.19F WCI  12
CENTRALIA*     LGT SNOW  23  20  89 SE12G18   30.16F VSB 1   WCI  12
SALEM*         LGT SNOW  24  19  82 SE7       30.18F WCI  16
METROPOLIS*    LGT SNOW  25  24  96 E8        30.19F WCI  16
$$

ILZ067-068-072-073-078-083-087-091-141800-
SOUTHEAST ILLINOIS

CITY           SKY/WX    TMP DP  RH WIND       PRES   REMARKS
LAWRENCEVILLE  LGT SNOW  22  15  75 SE13      30.26S VSB 3/4 WCI  10
FLORA*         LGT SNOW  24  20  85 SE14      30.22F WCI  11
FAIRFIELD*     LGT SNOW  23  20  87 SE14      30.20F WCI  11
HARRISBURG*    LGT SNOW  23  21  91 SE12      30.22F VSB 1   WCI  12
ROBINSON*      LGT SNOW  20  15  82 SE17      30.26F WCI   5
CARMI*         LGT SNOW  23  20  89 SE15      30.22F WCI  10
$$

ABBREVIATIONS USED IN REMARKS
   TC - TEMPERATURE IN CELSIUS
  WCI - WIND CHILL INDEX
   HX - HEAT INDEX
  VSB - VISIBILITY
$$




USA.gov is the U.S. government's official web portal to all federal, state and local government web resources and services.